(706) 295-7835

For Pilots

METAR

KRMG 231753Z AUTO 33012G21KT 2 1/2SM -RA BR FEW007 BKN013 OVC025 21/18 A2997 RMK AO2 SLP140 P0008 60118 T02060183 53004

Location & Communications

Get detailed information about the airport, provided by AirNav.

Pilot Services

We have fuel services, on-site repair and maintenance, 24-hour security and more.

Fuel Points

Russell Regional Airport is a Shell Aviation merchant and is proud to participate in the Shell Aero Class Rewards program!

Hangar Availability

RMG offers 66 various sized T-Hangars for tenants and visitors (upon availability). Below, you will find the sizes of the hangars offered at RMG. If […]

Today's Fuel Prices

Jet A $7.73 / gallon
AvGas (100LL) $6.00 / gallon
Self Serve AvGas $5.60 / gallon
Learn about fuel points program